Chamberlain, SD

2:22 AM CDT on August 21, 2017 (GMT -0500)
Chamberlain

Weather History for K9V9 - September, 2014

Change the Weather History Date:

Thursday, September 4, 2014

  Actual Average Record
Temperature  
Mean Temperature 72 °F -  
Max Temperature 92 °F 83 °F 102 °F (2001)
Min Temperature 55 °F 56 °F 45 °F (2010)
Cooling Degree Days 8    
Growing Degree Days 22 (Base 50)    
Moisture  
Dew Point 52 °F    
Average Humidity 57    
Maximum Humidity 95    
Minimum Humidity 23    
Precipitation  
Precipitation 0.00 in - - ()
Sea Level Pressure  
Sea Level Pressure 29.83 in    
Wind  
Wind Speed 14 mph (NW)    
Max Wind Speed 28 mph    
Max Gust Speed 46 mph    
Visibility 10 miles    
Events Rain    
Averages and records for this station are not official NWS values.
T = Trace of Precipitation, MM = Missing Value Source: NWS Daily Summary

Daily Weather History Graph

Daily Weather History Graph

Search for Another Location

Airport or City:

Trip Planner

Search our weather history database for the weather conditions in past years. The results will help you decide how hot, cold, wet, or windy it might be!

Date:

Astronomy

Sep. 04, 2014 Rise Set
Actual Time 7:04 AM CDT 8:07 PM CDT
Civil Twilight 6:34 AM CDT 8:36 PM CDT
Nautical Twilight 5:59 AM CDT 9:11 PM CDT
Astronomical Twilight 5:22 AM CDT 9:48 PM CDT
Moon 4:52 PM CDT (9/4) 1:50 AM CDT (9/4)
Length of Visible Light 14h 02m
Length of Day
13h 03m
Waxing Gibbous, 74% of the Moon is Illuminated
Sep 4
Waxing Gibbous
Sep 8
Full
Sep 15
Last Quarter
Sep 24
New
Oct 1
First Quarter

Hourly Weather History & Observations

Time (CDT) Temp. Heat Index Dew Point Humidity Pressure Visibility Wind Dir Wind Speed Gust Speed Precip Events Conditions
12:15 AM 72.0 °F - 70.5 °F 95% 29.54 in 10.0 mi ESE 4.6 mph - N/A   Clear
12:35 AM 72.5 °F - 70.7 °F 94% 29.55 in 10.0 mi Calm Calm - N/A   Clear
12:55 AM 74.1 °F - 70.7 °F 89% 29.59 in 10.0 mi SW 9.2 mph 19.6 mph N/A   Clear
1:15 AM 75.7 °F - 70.7 °F 84% 29.59 in 10.0 mi SSW 12.7 mph 17.3 mph N/A   Scattered Clouds
1:35 AM 82.8 °F 81.7 °F 54.0 °F 37% 29.57 in 10.0 mi WNW 17.3 mph 46.0 mph N/A Rain Rain
1:55 AM 90.0 °F - 46.9 °F 23% 29.57 in 10.0 mi South 19.6 mph 32.2 mph N/A   Scattered Clouds
2:15 AM 86.4 °F - 50.2 °F 29% 29.54 in 10.0 mi South 13.8 mph 23.0 mph N/A   Clear
2:35 AM 83.3 °F - 52.7 °F 35% 29.54 in 10.0 mi South 12.7 mph - N/A   Clear
2:55 AM 78.8 °F - 55.9 °F 45% 29.54 in 10.0 mi SSW 8.1 mph - N/A   Clear
3:15 AM 82.6 °F 81.7 °F 54.5 °F 38% 29.58 in 10.0 mi West 15.0 mph 21.9 mph N/A   Clear
3:35 AM 80.4 °F 80.6 °F 56.7 °F 44% 29.60 in 10.0 mi West 18.4 mph 23.0 mph N/A   Clear
3:55 AM 74.1 °F - 54.1 °F 50% 29.61 in 10.0 mi West 16.1 mph 31.1 mph N/A   Clear
4:15 AM 71.2 °F - 54.5 °F 55% 29.63 in 10.0 mi WNW 18.4 mph 25.3 mph N/A   Clear
4:35 AM 69.6 °F - 55.0 °F 60% 29.63 in 10.0 mi WNW 16.1 mph 25.3 mph N/A   Clear
4:55 AM 67.6 °F - 55.6 °F 65% 29.63 in 10.0 mi WNW 3.5 mph - N/A   Clear
5:15 AM 66.2 °F - 56.1 °F 70% 29.64 in 10.0 mi West 16.1 mph - N/A   Clear
5:35 AM 65.5 °F - 56.3 °F 72% 29.66 in 10.0 mi West 15.0 mph 20.7 mph N/A   Clear
5:55 AM 64.8 °F - 56.3 °F 74% 29.67 in 10.0 mi West 15.0 mph - N/A   Mostly Cloudy
6:15 AM 65.3 °F - 57.2 °F 75% 29.68 in 10.0 mi WNW 13.8 mph - N/A   Overcast
6:35 AM 65.3 °F - 57.4 °F 76% 29.67 in 10.0 mi WNW 18.4 mph 23.0 mph N/A   Overcast
6:55 AM 65.3 °F - 57.2 °F 75% 29.68 in 10.0 mi NW 19.6 mph 26.5 mph N/A   Overcast
7:15 AM 65.3 °F - 57.2 °F 75% 29.71 in 10.0 mi WNW 13.8 mph 23.0 mph N/A   Overcast
7:35 AM 65.3 °F - 58.1 °F 77% 29.72 in 10.0 mi WNW 15.0 mph 18.4 mph N/A   Overcast
7:55 AM 66.4 °F - 60.6 °F 82% 29.73 in 10.0 mi WNW 11.5 mph - N/A   Overcast
8:15 AM 66.6 °F - 60.8 °F 82% 29.74 in 10.0 mi NW 17.3 mph 24.2 mph N/A   Overcast
8:35 AM 66.4 °F - 61.0 °F 83% 29.75 in 10.0 mi NW 15.0 mph 23.0 mph N/A   Overcast
8:55 AM 65.8 °F - 60.3 °F 82% 29.75 in 10.0 mi WNW 20.7 mph 27.6 mph N/A   Mostly Cloudy
9:15 AM 66.0 °F - 60.4 °F 82% 29.76 in 10.0 mi NW 21.9 mph 29.9 mph N/A   Overcast
9:35 AM 66.2 °F - 60.4 °F 82% 29.77 in 10.0 mi NW 23.0 mph 32.2 mph N/A   Overcast
9:55 AM 66.4 °F - 59.9 °F 80% 29.79 in 10.0 mi NW 25.3 mph 33.4 mph N/A   Overcast
10:15 AM 68.0 °F - 60.1 °F 76% 29.81 in 10.0 mi NNW 23.0 mph 31.1 mph N/A   Mostly Cloudy
10:35 AM 68.4 °F - 55.4 °F 63% 29.83 in 10.0 mi NW 23.0 mph 31.1 mph N/A   Scattered Clouds
10:55 AM 70.7 °F - 53.4 °F 54% 29.84 in 10.0 mi NW 23.0 mph 28.8 mph N/A   Clear
11:15 AM 68.9 °F - 49.5 °F 50% 29.86 in 10.0 mi NNW 21.9 mph 31.1 mph N/A   Clear
11:35 AM 68.9 °F - 48.9 °F 49% 29.87 in 10.0 mi NW 19.6 mph 26.5 mph N/A   Clear
11:55 AM 70.0 °F - 47.7 °F 45% 29.87 in 10.0 mi NNW 21.9 mph 26.5 mph N/A   Clear
12:15 PM 71.6 °F - 44.8 °F 38% 29.88 in 10.0 mi NNW 25.3 mph 31.1 mph N/A   Clear
12:35 PM 72.9 °F - 44.1 °F 36% 29.88 in 10.0 mi NNW 20.7 mph 31.1 mph N/A   Clear
12:55 PM 74.8 °F - 45.9 °F 36% 29.88 in 10.0 mi NNW 20.7 mph 27.6 mph N/A   Clear
1:15 PM 73.9 °F - 44.4 °F 35% 29.89 in 10.0 mi NW 17.3 mph - N/A   Clear
1:35 PM 72.7 °F - 44.8 °F 37% 29.89 in 10.0 mi NNW 19.6 mph 31.1 mph N/A   Clear
1:55 PM 74.7 °F - 45.3 °F 35% 29.89 in 10.0 mi NNW 21.9 mph 31.1 mph N/A   Clear
2:15 PM 74.8 °F - 44.6 °F 34% 29.89 in 10.0 mi NW 21.9 mph 31.1 mph N/A   Clear
2:35 PM 74.8 °F - 45.5 °F 35% 29.90 in 10.0 mi NW 27.6 mph 31.1 mph N/A   Clear
2:55 PM 73.0 °F - 45.0 °F 37% 29.91 in 10.0 mi NW 21.9 mph 29.9 mph N/A   Clear
3:15 PM 72.3 °F - 46.2 °F 39% 29.92 in 10.0 mi NW 21.9 mph 29.9 mph N/A   Clear
3:35 PM 73.8 °F - 46.8 °F 38% 29.92 in 10.0 mi NW 24.2 mph 29.9 mph N/A   Clear
3:55 PM 73.2 °F - 46.6 °F 39% 29.92 in 10.0 mi NW 19.6 mph 27.6 mph N/A   Clear
4:15 PM 72.9 °F - 46.0 °F 38% 29.93 in 10.0 mi NW 18.4 mph 29.9 mph N/A   Clear
4:35 PM 73.2 °F - 47.7 °F 40% 29.94 in 10.0 mi NW 18.4 mph 26.5 mph N/A   Clear
4:55 PM 72.7 °F - 47.1 °F 40% 29.95 in 10.0 mi NW 19.6 mph 26.5 mph N/A   Clear
5:15 PM 71.4 °F - 46.8 °F 41% 29.96 in 10.0 mi NW 16.1 mph 23.0 mph N/A   Clear
5:35 PM 70.9 °F - 46.8 °F 42% 29.96 in 10.0 mi NW 19.6 mph 25.3 mph N/A   Clear
5:55 PM 70.2 °F - 48.2 °F 46% 29.96 in 10.0 mi NW 11.5 mph 23.0 mph N/A   Clear
6:15 PM 69.8 °F - 48.4 °F 46% 29.97 in 10.0 mi NW 17.3 mph 21.9 mph N/A   Clear
6:35 PM 70.0 °F - 48.2 °F 46% 29.98 in 10.0 mi NW 16.1 mph 24.2 mph N/A   Clear
6:55 PM 69.3 °F - 47.5 °F 46% 29.99 in 10.0 mi NW 15.0 mph 23.0 mph N/A   Clear
7:15 PM 67.8 °F - 47.3 °F 48% 30.00 in 10.0 mi NW 15.0 mph 19.6 mph N/A   Clear
7:35 PM 66.7 °F - 47.8 °F 51% 30.01 in 10.0 mi NW 13.8 mph - N/A   Clear
7:55 PM 65.8 °F - 47.8 °F 52% 30.02 in 10.0 mi WNW 13.8 mph - N/A   Clear
8:15 PM 64.8 °F - 48.2 °F 55% 30.02 in 10.0 mi WNW 10.4 mph - N/A   Clear
8:35 PM 63.9 °F - 48.0 °F 56% 30.03 in 10.0 mi WNW 9.2 mph 16.1 mph N/A   Clear
8:55 PM 63.0 °F - 48.2 °F 59% 30.05 in 10.0 mi WNW 10.4 mph - N/A   Clear
9:15 PM 62.2 °F - 48.2 °F 60% 30.05 in 10.0 mi WNW 9.2 mph - N/A   Clear
9:35 PM 61.9 °F - 48.2 °F 61% 30.06 in 10.0 mi WNW 8.1 mph - N/A   Clear
10:15 PM 59.9 °F - 48.4 °F 66% 30.07 in 10.0 mi WNW 5.8 mph - N/A   Clear
10:35 PM 57.6 °F - 48.7 °F 72% 30.08 in 10.0 mi WNW 5.8 mph - N/A   Clear
10:55 PM 57.2 °F - 48.6 °F 73% 30.09 in 10.0 mi WNW 8.1 mph - N/A   Clear
11:15 PM 55.6 °F - 48.6 °F 77% 30.10 in 10.0 mi NW 6.9 mph - N/A   Clear
11:35 PM 57.6 °F - 48.6 °F 72% 30.11 in 10.0 mi NNW 8.1 mph - N/A   Clear
11:55 PM 57.9 °F - 48.4 °F 71% 30.12 in 10.0 mi NW 4.6 mph - N/A   Clear